Terminal Aerodrome Forecast
Issued by NWS Raleigh/Durham, NC

Home | Current Version | Previous Version | Text Only | Print | Product List | Glossary On
Versions: 1 2 3 4 5 6 7 8 9 10 11 12 13 14 15 16 17 18 19 20 21 22 23 24 25 26 27 28 29 30 31 32 33 34 35 36 37 38 39 40 41 42 43 44
000
FTUS42 KRAH 301131
TAFRDU
TAF
KRDU 301131Z 3012/0112 00000KT 1/4SM FG OVC001
      TEMPO 3012/3014 1SM BR OVC005
     FM301400 00000KT 2SM BR BKN005
     FM301500 VRB02KT P6SM SCT008
     FM301800 VRB03KT P6SM SCT035
     FM010700 00000KT 3SM BR SCT004=

USA.gov is the U.S. government's official web portal to all federal, state and local government web resources and services.